Temp
2 2 2 2 2 2 2 2 2 2 2 2 2 2 2 2 2 2 2 2 1 1 1 1 1 1 1 1 1 1 1 1 1 1 1 1 1 1 1 1 1 1
1 1 1 1 1 1 1 1 1 1 1 1 1 1 1 1 1 1 1 1 1 1 1 1 1 1 1 1 1 1 1 1 1 1 1 1 1 1 1 1 1 1
1 1 1 1 1 1 1 1 1 1 1 1 1 1 1 1 1 1 1 1 1 1 1 1 1 1 1 1 1 1 1 1 1 1 1 1 1 1 1 1 1 1
1 1 1 1 1 1 1 1 1 1 1 1 1 1 1 1 1 1 1 1 1 1 1 1 1 1 1 1 0 0 0 0 0 0 0 0 0 1 1 0 0 0
1 1 1 1 1 1 1 1 1 1 1 1 0 1 1 1 1 1 1 1 1 1 1 1 1 1 1 1 0 0 0 0 0 0 0 0 0 0 0 0 0 0
1 1 1 1 1 1 1 1 1 1 1 0 0 0 1 1 1 1 1 1 0 0 1 1 1 1 1 1 0 0 0 0 0 -0 -0 -0 -0 0 0 0 0 0
1 1 1 1 1 1 1 1 1 1 1 0 0 0 0 1 1 1 1 1 0 0 0 0 1 1 1 0 0 0 0 0 0 -0 -0 -0 -0 -0 0 0 0 0
1 1 1 1 1 1 1 0 0 0 0 0 0 0 0 0 0 1 1 1 0 0 0 0 0 0 0 0 0 0 -0 -0 -0 -0 -0 -0 -0 -0 -0 -0 -0 -0
1 1 1 1 1 1 1 0 0 0 0 0 0 -0 0 0 0 0 0 0 0 0 -0 -0 -0 -0 -0 -0 -0 -0 -0 -0 -0 -0 -0 -0 -0 -0 -0 -1 -0 -0
1 1 1 1 1 0 0 0 0 0 0 0 -0 -0 -0 -0 -0 -0 -0 -0 -0 -0 -0 -0 -0 -0 -0 -0 -0 -0 -0 -0 -0 -0 -0 -0 -0 -0 -1 -1 -1 -1
2 1 1 1 1 0 0 0 0 -0 -0 0 -0 -0 -0 -0 -0 -0 -0 -0 -0 -0 -1 -1 -0 -0 -1 -1 -1 -1 -1 -1 -1 -1 -1 -1 -1 -1 -1 -1 -1 -1
2 2 1 1 0 0 0 0 0 0 -0 -0 -0 -0 -0 -0 -1 -1 -1 -1 -1 -1 -1 -1 -1 -1 -1 -1 -1 -1 -1 -1 -1 -1 -1 -1 -1 -1 -1 -1 -1 -1
2 1 1 1 0 0 0 0 0 -0 -0 -0 -0 -0 -0 -1 -1 -1 -1 -1 -1 -1 -1 -1 -1 -1 -1 -1 -1 -1 -1 -1 -1 -1 -1 -1 -1 -1 -1 -1 -1 -1
2 1 1 1 1 1 0 0 -0 -0 -0 -0 -0 -1 -1 -1 -1 -1 -1 -1 -1 -1 -1 -1 -1 -1 -1 -1 -1 -1 -1 -1 -1 -1 -1 -1 -1 -1 -1 -1 -1 -1
2 1 1 1 1 1 0 0 -0 -0 -0 -1 -1 -1 -1 -1 -1 -1 -1 -1 -1 -1 -1 -1 -1 -1 -1 -1 -1 -1 -1 -1 -1 -1 -1 -1 -1 -0 -1 -1 -1 -1
2 2 1 1 1 1 0 0 -0 -0 -0 -1 -1 -1 -1 -1 -1 -1 -1 -1 -1 -1 -1 -1 -1 -1 -1 -1 -1 -0 -0 -0 -0 -0 -0 -1 -1 -1 -1 -1 -1 -1
1 1 1 1 0 0 0 0 -0 -0 -0 -0 -1 -1 -1 -1 -1 -1 -1 -1 -1 -1 -1 -1 -1 -1 -1 -1 -0 -0 -0 -0 -0 -0 -0 -1 -1 -1 -1 -1 -1 -1
1 1 0 0 0 0 -0 -0 -0 -0 -0 -0 -1 -1 -1 -1 -1 -1 -1 -1 -1 -1 -1 -1 -0 -0 -0 -0 -0 -0 -0 -0 -0 -0 -1 -1 -1 -1 -1 -1 -1 -1
1 0 0 -0 -0 -0 -0 -0 -1 -1 -1 -1 -1 -1 -1 -1 -1 -1 -1 -1 -1 -1 -1 -1 -1 -1 -1 -1 -1 -1 -0 -0 -1 -1 -1 -1 -1 -1 -1 -1 -1 -1
0 0 -0 -0 -0 -0 -1 -1 -1 -1 -1 -1 -1 -1 -1 -1 -1 -1 -1 -1 -1 -1 -1 -1 -1 -1 -1 -1 -1 -1 -1 -1 -1 -1 -1 -1 -1 -1 -1 -1 -1 -1
-0 -0 -0 -0 -1 -1 -1 -1 -1 -1 -2 -1 -1 -1 -2 -2 -2 -2 -2 -1 -1 -1 -1 -1 -1 -1 -1 -1 -1 -1 -1 -1 -1 -1 -1 -1 -1 -2 -2 -2 -2 -2
-1 -1 -1 -1 -1 -1 -1 -1 -1 -1 -2 -2 -2 -2 -2 -2 -2 -2 -2 -2 -2 -2 -2 -2 -2 -2 -2 -2 -2 -2 -2 -2 -2 -2 -2 -2 -2 -2 -2 -2 -2 -2
-1 -1 -1 -1 -1 -1 -1 -1 -1 -1 -1 -2 -2 -2 -2 -2 -2 -2 -2 -2 -2 -2 -2 -2 -2 -2 -2 -2 -2 -2 -2 -3 -3 -3 -3 -3 -3 -3 -3 -3 -3 -3
-2 -2 -2 -2 -2 -2 -2 -2 -2 -2 -2 -2 -2 -2 -2 -2 -3 -3 -3 -3 -3 -3 -3 -3 -3 -3 -3 -3 -3 -3 -3 -3 -3 -3 -3 -3 -3 -3 -3 -3 -3 -3
-2 -3 -3 -3 -2 -2 -2 -2 -3 -3 -3 -3 -3 -3 -3 -3 -3 -3 -3 -3 -3 -3 -3 -3 -3 -3 -3 -3 -3 -3 -3 -3 -3 -3 -3 -3 -3 -3 -3 -3 -3 -3
-3 -3 -4 -4 -3 -3 -3 -3 -3 -3 -3 -3 -3 -4 -4 -4 -4 -4 -4 -4 -4 -4 -4 -4 -4 -4 -3 -3 -3 -3 -3 -4 -4 -4 -4 -4 -4 -4 -4 -4 -4 -4
Height
3143 3143 3144 3145 3145 3145 3146 3147 3147 3147 3147 3147 3147 3147 3146 3146 3145 3145 3145 3145 3145 3144 3144 3144 3144 3144 3144 3144 3145 3145 3145 3145 3145 3145 3145 3144 3144 3144 3144 3144 3144 3145
3141 3142 3143 3144 3144 3144 3145 3146 3146 3147 3147 3148 3147 3147 3147 3146 3146 3145 3145 3145 3145 3145 3145 3145 3145 3145 3145 3145 3145 3145 3145 3145 3145 3145 3145 3145 3145 3145 3145 3145 3145 3145
3139 3141 3142 3142 3143 3143 3144 3145 3145 3146 3147 3147 3147 3147 3147 3146 3146 3146 3146 3146 3146 3146 3146 3146 3146 3146 3146 3146 3146 3146 3146 3146 3146 3146 3145 3145 3145 3145 3145 3145 3145 3145
3138 3139 3140 3141 3141 3142 3143 3144 3145 3145 3146 3146 3146 3147 3146 3146 3146 3146 3146 3147 3147 3147 3146 3146 3146 3146 3146 3146 3146 3147 3147 3147 3147 3146 3146 3146 3145 3145 3145 3146 3146 3146
3137 3138 3139 3140 3140 3140 3142 3143 3143 3144 3145 3145 3145 3146 3146 3146 3146 3146 3147 3147 3147 3147 3147 3146 3146 3146 3146 3146 3146 3147 3147 3147 3147 3147 3147 3146 3146 3146 3146 3146 3146 3146
3135 3136 3137 3138 3138 3139 3140 3141 3142 3143 3143 3144 3145 3145 3145 3145 3145 3146 3146 3146 3147 3147 3147 3146 3146 3146 3146 3146 3146 3146 3146 3147 3147 3147 3147 3147 3147 3146 3146 3146 3146 3146
3134 3134 3135 3136 3137 3138 3138 3139 3140 3141 3142 3143 3143 3144 3144 3144 3144 3145 3146 3146 3146 3146 3146 3146 3146 3146 3146 3146 3146 3146 3146 3146 3146 3146 3146 3147 3146 3146 3146 3146 3146 3146
3131 3132 3133 3134 3135 3136 3136 3137 3138 3140 3140 3141 3142 3142 3142 3143 3143 3144 3145 3145 3145 3145 3145 3146 3146 3146 3145 3145 3145 3145 3145 3145 3145 3145 3145 3145 3145 3145 3145 3145 3145 3145
3129 3130 3131 3132 3133 3133 3134 3135 3136 3138 3139 3139 3140 3140 3140 3141 3141 3142 3143 3144 3144 3144 3144 3144 3144 3144 3144 3144 3144 3144 3144 3144 3144 3144 3144 3144 3144 3144 3144 3144 3144 3145
3127 3128 3129 3130 3131 3131 3132 3133 3134 3136 3137 3138 3138 3138 3139 3139 3139 3140 3141 3142 3142 3142 3142 3143 3143 3143 3143 3143 3143 3142 3142 3143 3143 3143 3143 3142 3143 3143 3142 3142 3143 3143
3126 3127 3127 3128 3128 3128 3130 3131 3132 3134 3135 3136 3137 3137 3137 3137 3138 3138 3139 3140 3140 3140 3140 3141 3141 3141 3141 3141 3141 3141 3141 3141 3141 3141 3141 3141 3141 3141 3141 3141 3141 3141
3124 3125 3125 3125 3125 3126 3127 3129 3130 3131 3132 3134 3135 3135 3135 3136 3136 3136 3137 3137 3138 3138 3138 3138 3139 3139 3139 3139 3139 3139 3139 3139 3139 3139 3139 3139 3139 3139 3139 3139 3139 3139
3123 3123 3123 3124 3124 3124 3125 3127 3128 3129 3130 3131 3132 3133 3133 3134 3134 3134 3135 3135 3135 3135 3135 3136 3136 3136 3136 3136 3136 3136 3137 3137 3137 3138 3138 3138 3138 3137 3137 3137 3137 3137
3121 3122 3123 3124 3124 3123 3123 3125 3126 3126 3128 3129 3130 3130 3131 3132 3132 3132 3132 3133 3133 3133 3133 3133 3133 3133 3133 3134 3134 3134 3134 3135 3135 3135 3136 3136 3136 3135 3135 3136 3136 3136
3119 3120 3121 3122 3122 3121 3121 3123 3124 3124 3125 3126 3127 3128 3128 3129 3129 3129 3130 3130 3130 3130 3130 3130 3130 3130 3131 3132 3132 3132 3133 3133 3133 3133 3134 3134 3134 3133 3134 3135 3135 3134
3118 3118 3118 3118 3119 3120 3120 3121 3122 3122 3122 3123 3124 3125 3126 3126 3127 3127 3127 3127 3127 3127 3127 3127 3127 3128 3129 3129 3130 3130 3131 3131 3131 3132 3132 3132 3132 3131 3132 3133 3133 3132
3116 3116 3115 3116 3117 3118 3118 3119 3120 3120 3120 3120 3121 3122 3123 3124 3125 3125 3125 3125 3125 3124 3124 3124 3124 3125 3126 3127 3127 3128 3129 3129 3130 3130 3131 3131 3130 3130 3130 3130 3131 3130
3113 3113 3114 3114 3115 3115 3116 3117 3118 3118 3118 3118 3118 3119 3120 3121 3121 3122 3122 3122 3122 3122 3121 3122 3122 3123 3124 3125 3126 3126 3127 3128 3128 3129 3129 3129 3129 3129 3128 3128 3129 3128
3111 3111 3112 3112 3113 3114 3114 3115 3115 3116 3115 3115 3115 3116 3117 3117 3118 3119 3119 3120 3120 3120 3120 3120 3121 3122 3122 3123 3124 3125 3125 3126 3126 3126 3127 3127 3127 3127 3126 3126 3126 3126
3109 3109 3110 3110 3111 3112 3112 3112 3113 3113 3113 3113 3113 3113 3113 3114 3115 3117 3117 3117 3118 3118 3118 3119 3119 3120 3121 3121 3122 3122 3123 3123 3124 3124 3124 3124 3124 3124 3124 3123 3123 3123
3107 3108 3108 3109 3109 3110 3110 3110 3111 3111 3111 3111 3111 3111 3111 3112 3113 3114 3115 3115 3115 3116 3116 3117 3117 3118 3118 3119 3119 3120 3120 3120 3121 3121 3121 3121 3121 3121 3121 3121 3120 3120
3105 3106 3106 3107 3107 3108 3108 3108 3109 3109 3109 3109 3109 3109 3110 3110 3110 3111 3112 3112 3113 3113 3114 3114 3115 3115 3116 3116 3117 3117 3117 3117 3117 3117 3117 3117 3117 3117 3117 3117 3117 3117
3103 3104 3104 3105 3105 3106 3106 3106 3106 3106 3106 3106 3107 3107 3107 3107 3108 3108 3109 3109 3110 3111 3111 3112 3112 3112 3113 3113 3113 3114 3114 3114 3114 3114 3114 3114 3114 3114 3113 3113 3113 3114
3101 3101 3102 3102 3102 3102 3103 3103 3103 3104 3104 3104 3104 3104 3104 3105 3105 3105 3106 3107 3107 3108 3108 3108 3109 3109 3109 3110 3110 3110 3111 3111 3110 3110 3110 3110 3110 3110 3110 3110 3110 3110
3097 3098 3098 3098 3098 3098 3099 3099 3099 3100 3100 3101 3101 3102 3102 3102 3102 3103 3103 3104 3104 3104 3105 3105 3105 3105 3106 3106 3106 3107 3107 3107 3107 3106 3106 3107 3107 3106 3106 3106 3106 3106
3093 3094 3094 3095 3095 3095 3095 3095 3095 3096 3096 3097 3098 3099 3099 3099 3099 3100 3100 3101 3101 3101 3101 3102 3102 3102 3102 3103 3103 3103 3104 3104 3104 3103 3103 3103 3103 3103 3103 3103 3103 3103
Wind_Speed
17 13 12 11 12 12 12 11 11 12 13 9 5 3 2 3 5 6 6 6 7 7 8 8 8 8 8 8 7 7 7 7 7 7 7 7 6 6 6 5 5 5
19 15 14 13 13 14 13 12 12 14 13 9 5 3 4 5 6 7 6 6 7 7 8 8 8 8 8 8 8 8 8 8 8 8 7 7 7 7 6 6 6 5
20 18 16 15 15 14 13 12 13 12 11 10 9 7 6 6 6 7 7 6 5 6 7 7 8 8 8 8 7 7 7 7 8 8 7 7 7 7 7 6 6 6
21 20 19 17 17 16 14 14 13 12 12 12 10 10 8 6 7 6 5 5 4 5 5 5 6 6 5 6 5 6 6 6 6 7 7 7 7 7 7 7 6 6
22 22 21 20 19 17 15 15 15 14 14 13 10 11 10 8 7 6 5 4 3 3 4 4 4 3 3 3 3 3 3 3 3 4 4 4 5 5 5 5 5 5
24 24 23 22 21 19 17 17 17 16 16 15 12 12 12 11 9 7 6 5 5 5 5 4 4 3 2 2 1 1 0 0 0 1 1 1 2 2 2 2 3 3
27 26 25 24 23 22 21 20 19 18 18 17 13 12 13 13 12 10 9 9 8 7 7 7 6 6 5 5 4 4 4 3 3 4 4 4 4 4 4 3 3 3
29 28 26 25 25 24 24 23 22 21 20 18 15 13 14 15 14 14 13 13 12 11 10 9 9 9 9 8 8 8 8 8 8 8 7 7 6 7 7 7 7 7
29 28 27 26 26 25 25 24 23 22 21 21 18 15 15 16 16 16 15 16 15 15 14 13 12 12 12 12 12 11 11 11 11 11 11 10 9 9 9 9 10 9
26 27 27 27 27 27 26 25 25 24 23 21 19 17 16 17 17 17 17 17 17 18 17 16 15 15 15 15 15 15 14 13 14 14 15 14 13 13 12 12 11 11
20 21 22 23 26 27 27 27 27 26 25 22 20 19 19 19 19 18 18 18 19 20 19 19 19 19 19 19 18 18 18 17 16 17 16 16 16 15 15 15 15 14
15 16 18 21 24 25 25 26 27 26 25 23 21 21 21 21 20 19 19 19 20 21 20 20 21 21 21 21 21 22 22 22 21 19 18 17 16 14 14 15 16 16
14 16 18 18 19 21 22 25 26 26 26 25 23 22 22 22 21 20 21 22 22 23 23 22 22 22 22 22 24 25 24 23 22 20 18 18 16 14 13 13 13 14
15 17 17 15 16 19 21 23 25 27 27 26 26 25 24 24 23 23 23 23 25 25 25 25 25 24 24 23 23 23 23 22 20 18 18 17 17 16 14 12 12 13
15 16 15 15 18 21 22 21 23 26 28 29 28 27 26 25 24 24 25 26 27 28 27 27 27 25 24 22 21 20 21 20 19 18 17 17 17 17 14 13 14 15
17 17 16 16 18 20 20 19 21 24 27 29 27 27 27 26 24 24 26 27 27 27 27 27 26 24 22 20 19 19 19 18 17 17 17 16 16 16 15 14 15 16
18 18 17 16 16 16 17 19 20 21 24 26 24 24 26 24 22 24 27 27 25 24 22 20 20 19 19 18 17 16 16 16 16 16 16 15 14 14 14 14 15 15
19 18 18 17 18 17 17 18 19 20 22 23 22 22 23 23 23 25 25 23 21 19 16 14 14 15 15 15 14 14 14 15 16 16 16 15 16 16 16 16 17 18
20 18 17 17 18 18 18 17 18 18 20 21 21 21 21 22 22 21 20 18 16 15 13 13 13 13 14 14 14 15 15 15 16 16 16 17 18 19 20 20 21 21
19 18 17 17 16 16 17 17 16 16 18 19 19 19 20 20 18 17 17 16 15 15 15 15 15 15 15 16 16 16 16 16 17 18 18 20 20 21 22 23 23 24
18 18 18 18 17 16 15 14 13 13 15 16 16 17 18 17 15 15 17 17 16 17 17 17 17 16 16 16 16 16 17 17 18 19 20 21 22 22 23 23 23 24
19 19 19 20 19 18 18 17 16 15 15 15 15 15 15 14 14 16 17 17 17 17 17 17 17 17 17 17 17 17 17 18 19 19 20 20 21 22 22 23 23 23
21 21 21 21 22 22 22 22 22 22 22 20 19 19 18 17 17 18 17 17 17 17 17 17 16 17 17 18 18 18 18 19 19 20 20 21 21 22 23 23 24 24
21 21 22 23 24 26 27 26 25 24 24 23 21 21 21 20 19 18 18 18 17 17 17 17 18 18 19 19 20 20 20 21 22 23 23 23 23 24 24 25 25 26
22 23 23 24 25 27 29 30 29 28 28 27 24 22 21 21 20 20 20 19 19 18 18 19 20 21 21 22 22 22 22 23 24 26 26 26 26 27 27 27 28 28
24 24 25 24 25 25 26 27 28 29 31 31 29 25 23 22 22 21 21 20 20 20 20 20 21 23 24 25 25 25 25 25 26 28 29 29 29 29 30 30 30 31
Wind_Direction
228 231 235 240 240 245 264 280 285 296 304 307 307 280 215 158 144 138 132 127 120 113 108 104 101 102 101 101 101 100 101 102 103 104 107 113 118 123 128 131 135 136
227 231 234 240 250 260 269 268 274 286 287 284 277 241 192 166 154 147 143 137 129 120 112 106 101 98 97 96 96 96 95 95 95 95 96 98 99 101 105 108 112 115
223 228 231 240 251 257 260 260 271 279 275 277 267 228 196 183 171 160 155 150 141 132 121 115 110 102 98 94 90 90 90 91 91 90 90 88 86 87 85 85 89 91
221 226 229 239 246 247 250 254 265 270 273 281 261 224 215 206 192 181 169 163 159 151 142 134 126 117 110 103 95 90 84 81 83 82 82 81 79 78 74 72 71 70
223 227 230 237 240 241 246 250 259 265 270 279 262 232 232 229 217 212 198 194 202 198 190 177 163 154 143 131 118 108 93 81 75 69 69 72 70 72 71 68 64 59
224 228 232 235 236 240 245 249 258 263 265 274 269 244 239 242 238 235 234 235 237 240 243 238 231 229 223 221 221 209 204 120 0 334 334 347 5 26 33 37 38 33
225 229 233 236 239 242 246 250 257 262 264 269 267 250 245 250 251 250 256 262 261 259 260 263 267 272 278 282 287 291 291 291 286 281 281 284 287 291 295 300 304 311
226 230 233 238 242 245 247 250 254 258 260 262 262 255 249 252 257 259 262 268 271 270 269 271 274 277 282 287 291 294 296 296 291 283 277 274 277 282 282 279 277 278
228 231 234 238 241 244 246 248 250 253 256 259 261 258 253 255 261 264 266 268 271 273 273 273 273 273 276 280 284 286 288 290 289 284 277 273 274 276 278 280 280 280
228 231 234 236 238 241 242 244 247 249 252 256 257 256 256 259 262 265 268 268 269 272 273 271 270 270 271 273 277 281 282 285 288 284 275 271 273 274 274 276 278 281
228 229 232 234 235 236 238 240 244 246 250 252 251 251 254 258 262 266 267 268 271 272 273 272 270 269 269 271 274 277 278 282 290 290 280 272 274 276 276 277 277 278
231 229 230 230 231 232 235 239 242 245 249 250 250 250 253 257 263 268 272 274 277 278 277 276 274 272 272 273 274 275 275 277 283 286 282 277 277 279 280 279 276 275
232 230 232 234 233 231 233 238 242 245 247 248 249 250 252 255 260 265 271 275 279 281 281 280 277 276 275 276 277 276 275 275 274 272 271 274 277 278 280 281 279 280
236 234 236 240 239 236 234 235 239 244 246 245 246 246 248 252 256 261 265 270 276 278 278 277 276 276 276 277 278 275 271 271 268 261 262 268 272 275 279 285 288 288
244 243 238 235 235 235 235 235 238 243 246 246 244 244 244 246 250 258 264 268 271 273 272 272 271 271 271 272 271 266 263 265 263 259 261 267 271 275 280 285 285 285
244 247 241 234 234 235 236 238 240 243 247 248 247 247 248 246 245 254 262 266 268 270 270 267 264 263 263 263 262 260 260 261 259 259 263 268 274 280 283 285 284 285
239 243 241 238 237 233 231 235 239 243 246 246 246 249 252 252 251 254 259 263 267 270 267 260 254 253 255 256 257 257 257 256 255 257 262 267 276 284 288 289 289 289
235 238 238 237 237 234 230 230 233 237 241 243 244 246 250 253 255 256 255 257 261 263 259 251 248 249 249 250 250 251 251 251 252 256 263 271 279 285 288 289 290 290
235 236 237 238 238 238 238 235 232 234 239 244 245 246 248 250 251 253 252 249 250 254 254 252 251 250 249 250 251 252 254 255 258 262 268 275 280 283 286 287 289 290
239 240 242 243 242 242 243 243 240 238 241 246 247 249 252 252 248 248 248 245 248 257 260 260 259 257 257 258 259 261 264 266 269 272 275 277 280 281 284 286 289 290
243 247 249 251 251 250 248 246 245 243 243 246 248 249 252 252 248 247 249 251 256 261 262 262 262 262 262 264 265 268 272 274 276 278 279 281 282 283 285 286 288 289
242 247 252 255 257 259 257 254 251 250 248 248 249 248 249 248 248 251 254 256 258 259 258 259 261 264 266 269 272 274 276 278 280 282 283 284 285 286 286 286 287 288
244 247 251 254 256 258 260 261 260 257 255 254 252 251 251 251 252 254 255 255 256 257 259 261 265 269 272 274 276 277 280 282 283 283 284 285 286 287 287 288 288 288
246 248 250 250 251 252 254 257 259 258 255 254 252 251 249 248 247 248 249 251 253 255 260 265 268 270 272 273 275 276 279 282 283 282 283 285 286 287 288 288 289 290
244 247 249 249 250 250 251 253 255 255 253 252 252 253 251 246 243 243 245 248 250 253 258 262 264 266 268 270 272 274 277 281 283 283 283 285 286 286 287 288 289 290
245 246 249 250 250 250 251 253 255 255 254 251 249 248 247 245 243 243 244 245 247 250 254 257 261 264 267 268 269 271 274 278 281 282 282 284 285 285 286 286 287 289